TimeAKST,TemperatureF,Dew PointF,Humidity,Sea Level PressureIn,VisibilityMPH,Wind Direction,Wind SpeedMPH,Gust SpeedMPH,PrecipitationIn,Events,Conditions,WindDirDegrees,DateUTC
12:53 AM,39.9,37.0,89,29.87,5.0,SE,3.5,-,0.18,Rain,Rain,140,2013-01-02 09:53:00
1:53 AM,37.9,37.0,97,29.86,5.0,NNW,3.5,-,0.13,Rain,Rain,340,2013-01-02 10:53:00
3:53 AM,39.0,37.0,93,29.82,8.0,Calm,Calm,-,0.08,Rain,Light Rain,0,2013-01-02 12:53:00
4:53 AM,39.0,37.0,93,29.81,8.0,Calm,Calm,-,0.07,Rain,Light Rain,0,2013-01-02 13:53:00
5:53 AM,39.0,37.9,96,29.79,8.0,Variable,4.6,-,0.07,Rain,Light Rain,0,2013-01-02 14:53:00
6:53 AM,39.9,37.9,93,29.78,8.0,NNE,5.8,-,0.03,Rain,Light Rain,30,2013-01-02 15:53:00
7:53 AM,39.9,39.0,97,29.78,8.0,Calm,Calm,-,0.03,Rain,Light Rain,0,2013-01-02 16:53:00
8:51 AM,41.0,39.2,93,29.79,7.0,SSW,6.9,-,0.04,Rain,Light Rain,200,2013-01-02 17:51:00
8:53 AM,41.0,39.9,96,29.80,5.0,SSW,4.6,-,0.05,Rain,Light Rain,200,2013-01-02 17:53:00
9:00 AM,42.8,39.2,87,29.79,3.0,Calm,Calm,-,0.02,Rain,Rain,0,2013-01-02 18:00:00
9:41 AM,41.0,39.2,93,29.81,7.0,SSW,3.5,-,0.07,Rain,Light Rain,200,2013-01-02 18:41:00
9:53 AM,41.0,39.0,93,29.82,7.0,Calm,Calm,-,0.07,Rain,Light Rain,0,2013-01-02 18:53:00
10:15 AM,41.0,39.2,93,29.81,7.0,SSE,3.5,-,0.02,Rain,Light Rain,160,2013-01-02 19:15:00
10:53 AM,41.0,39.0,93,29.82,5.0,Calm,Calm,-,0.07,Rain,Rain,0,2013-01-02 19:53:00
11:04 AM,41.0,39.2,93,29.82,2.5,Calm,Calm,-,0.02,Rain,Rain,0,2013-01-02 20:04:00
11:53 AM,39.9,39.0,97,29.82,7.0,Calm,Calm,-,0.07,Rain,Light Rain,0,2013-01-02 20:53:00
12:39 PM,39.2,39.2,100,29.82,2.5,Calm,Calm,-,0.03,Rain,Light Rain,0,2013-01-02 21:39:00
12:51 PM,39.2,39.2,100,29.82,4.0,Calm,Calm,-,0.04,Rain,Light Rain,0,2013-01-02 21:51:00
12:53 PM,39.9,39.0,97,29.83,5.0,Calm,Calm,-,0.05,Rain,Light Rain,0,2013-01-02 21:53:00
1:53 PM,39.0,37.9,96,29.83,7.0,Calm,Calm,-,0.03,Rain,Light Rain,0,2013-01-02 22:53:00
2:53 PM,37.9,37.0,97,29.86,4.0,Calm,Calm,-,0.06,Rain,Light Rain,0,2013-01-02 23:53:00
3:53 PM,37.9,37.0,97,29.88,10.0,Calm,Calm,-,0.03,Rain,Light Rain,0,2013-01-03 00:53:00
4:33 PM,37.4,35.6,93,29.88,10.0,NNW,3.5,-,0.01,,Overcast,340,2013-01-03 01:33:00
4:44 PM,37.4,35.6,93,29.88,10.0,Calm,Calm,-,0.01,,Overcast,0,2013-01-03 01:44:00
4:53 PM,37.0,37.0,100,29.89,10.0,Calm,Calm,-,0.01,,Overcast,0,2013-01-03 01:53:00
5:42 PM,35.6,35.6,100,29.89,10.0,Calm,Calm,-,0.01,,Mostly Cloudy,0,2013-01-03 02:42:00
5:50 PM,35.6,33.8,93,29.90,10.0,Calm,Calm,-,0.01,,Scattered Clouds,0,2013-01-03 02:50:00
5:53 PM,35.1,34.0,96,29.90,10.0,Calm,Calm,-,0.01,,Partly Cloudy,0,2013-01-03 02:53:00
6:04 PM,35.6,33.8,93,29.90,7.0,Calm,Calm,-,N/A,,Scattered Clouds,0,2013-01-03 03:04:00
6:17 PM,35.6,33.8,93,29.91,10.0,Calm,Calm,-,N/A,,Mostly Cloudy,0,2013-01-03 03:17:00
6:46 PM,33.8,33.8,100,29.91,6.0,Calm,Calm,-,N/A,,Partly Cloudy,0,2013-01-03 03:46:00
6:53 PM,34.0,33.1,96,29.92,10.0,Calm,Calm,-,N/A,,Partly Cloudy,0,2013-01-03 03:53:00
7:07 PM,33.8,32.0,93,29.92,6.0,Calm,Calm,-,N/A,,Mostly Cloudy,0,2013-01-03 04:07:00
7:20 PM,33.8,32.0,93,29.93,1.2,Calm,Calm,-,N/A,,Overcast,0,2013-01-03 04:20:00
7:31 PM,33.8,32.0,93,29.94,0.5,Calm,Calm,-,N/A,Fog,Fog,0,2013-01-03 04:31:00
7:42 PM,33.8,32.0,93,29.94,1.8,Calm,Calm,-,N/A,,Overcast,0,2013-01-03 04:42:00
7:53 PM,32.0,32.0,100,29.95,1.8,Calm,Calm,-,N/A,,Overcast,0,2013-01-03 04:53:00
8:09 PM,33.8,33.8,100,29.95,3.0,Calm,Calm,-,N/A,,Overcast,0,2013-01-03 05:09:00
8:13 PM,33.8,33.8,100,29.95,2.5,Calm,Calm,-,N/A,,Overcast,0,2013-01-03 05:13:00
8:23 PM,33.8,33.8,100,29.95,1.8,Calm,Calm,-,N/A,,Overcast,0,2013-01-03 05:23:00
8:28 PM,33.8,33.8,100,29.95,3.0,Calm,Calm,-,N/A,,Overcast,0,2013-01-03 05:28:00
8:53 PM,34.0,33.1,96,29.96,10.0,Calm,Calm,-,N/A,,Overcast,0,2013-01-03 05:53:00
9:53 PM,34.0,33.1,96,29.97,10.0,NNE,3.5,-,N/A,,Overcast,20,2013-01-03 06:53:00
10:53 PM,35.1,33.1,92,29.99,10.0,NE,3.5,-,N/A,,Overcast,40,2013-01-03 07:53:00
11:13 PM,35.6,33.8,93,29.98,10.0,Calm,Calm,-,N/A,,Overcast,0,2013-01-03 08:13:00
11:53 PM,35.1,34.0,96,29.98,10.0,NNE,3.5,-,N/A,,Overcast,20,2013-01-03 08:53:00